User: anonymous   Login
Location: Nebula Knoll Observatory
(43.6666°N, 71.0000°W)
Time: 16:13:07
(UTC-05:00)
Language:

Cosmos 1782 - Orbit

View from above orbital plane
View from above orbital plane
View from above satellite
View from above satellite

Ground track
Ground track

The orbit data is extracted from the following two-line orbital elements,

1 16986U 86074A   17324.12238208  .00000032  00000-0  12054-6 0  9991
2 16986  82.5061 329.5212 0011966 162.7600 197.4036 15.06729476694335
Epoch (UTC): 20 November 2017 02:56:13
Eccentricity: 0.0011966
inclination: 82.5061°
perigee height: 538 km
apogee height: 554 km
right ascension of ascending node: 329.5212°
argument of perigee: 162.7600°
revolutions per day: 15.06729476
mean anomaly at epoch: 197.4036°
orbit number at epoch: 69433

The dashed part of the orbit path shows where the satellite is in the earth's shadow,  

DLR